{"data":{"norad_id":69908,"epoch":"2026-09-19T12:56:33.126720Z","epoch_age_seconds":100774,"freshness":"FRESH","line1":"1 69908U 26156AR  26262.53927230  .00001240  00000+0  12891-3 0  9991","line2":"2 69908  97.7435 161.7070 0004429 255.5551 104.5177 14.91652297 11067","mean_motion":14.91652297,"eccentricity":0.0004429,"inclination_deg":97.7435,"raan_deg":161.707,"arg_perigee_deg":255.5551,"mean_anomaly_deg":104.5177,"bstar":0.00012891,"rev_number":1106,"period_min":96.537242821006,"perigee_km":589.69571556495,"apogee_km":595.8705566215,"semimajor_km":6970.9201360932,"source":"CELESTRAK","updated_at":"2026-09-20T09:00:25.173609Z"}}